| time (UTC) | temp F | wind direction | speed knots | gust knots | rain 1hr in | rain 24hr in | rain mn in | humidity % | barometer mb |
| 20260507113909 | 45 | 0.0 | 0.0 | 0.00 | 0.00 | 0.00 | 999.9 | ||
| 20260507112907 | 53 | 0.0 | 0.0 | 0.00 | 0.00 | 0.00 | 999.8 | ||
| 20260507111905 | 50 | 0.0 | 0.0 | 0.00 | 0.00 | 0.00 | 999.7 | ||
| 20260507105900 | 46 | 0.0 | 0.0 | 0.00 | 0.00 | 0.00 | 999.4 | ||
| 20260507104858 | 42 | 0.0 | 0.0 | 0.00 | 0.00 | 0.00 | 999.5 | ||
| 20260507103856 | 44 | 0.0 | 0.0 | 0.00 | 0.00 | 0.00 | 999.4 | ||
| 20260507102854 | 43 | 0.0 | 0.0 | 0.00 | 0.00 | 0.00 | 999.4 | ||
| 20260507101852 | 42 | 0.0 | 0.0 | 0.00 | 0.00 | 0.00 | 999.3 | ||
| 20260507100849 | 50 | 0.0 | 0.0 | 0.00 | 0.00 | 0.00 | 999.2 | ||
| 20260507095847 | 50 | 0.0 | 0.0 | 0.00 | 0.00 | 0.00 | 999.1 | ||
| 20260507094845 | 43 | 0.0 | 0.0 | 0.00 | 0.00 | 0.00 | 999.0 | ||
| 20260507093843 | 42 | 0.0 | 0.0 | 0.00 | 0.00 | 0.00 | 999.0 | ||
| 20260507092841 | 41 | 0.0 | 0.0 | 0.00 | 0.00 | 0.00 | 999.0 | ||
| 20260507091838 | 40 | 0.0 | 0.0 | 0.00 | 0.00 | 0.00 | 999.0 | ||
| 20260507090836 | 39 | 0.0 | 0.0 | 0.00 | 0.00 | 0.00 | 998.9 | ||
| 20260507085834 | 41 | 0.0 | 0.0 | 0.00 | 0.00 | 0.00 | 998.9 | ||
| 20260507084832 | 41 | 0.0 | 0.0 | 0.00 | 0.00 | 0.00 | 998.8 | ||
| 20260507083829 | 40 | 0.0 | 0.0 | 0.00 | 0.00 | 0.00 | 998.7 | ||
| 20260507082827 | 39 | 0.0 | 0.0 | 0.00 | 0.00 | 0.00 | 998.8 | ||
| 20260507081825 | 40 | 0.0 | 0.0 | 0.00 | 0.00 | 0.00 | 998.8 | ||
| 20260507080823 | 39 | 0.0 | 0.0 | 0.00 | 0.00 | 0.00 | 998.7 | ||
| 20260507075821 | 39 | 0.0 | 0.0 | 0.00 | 0.00 | 0.00 | 998.6 | ||
| 20260507074818 | 39 | 0.0 | 0.0 | 0.00 | 0.00 | 0.00 | 998.6 | ||
| 20260507073816 | 40 | 0.0 | 0.0 | 0.00 | 0.00 | 0.00 | 998.4 | ||
| 20260507072814 | 39 | 0.0 | 0.0 | 0.00 | 0.00 | 0.00 | 998.4 | ||
| 20260507071812 | 38 | 0.0 | 0.0 | 0.00 | 0.00 | 0.00 | 998.4 | ||
| 20260507070810 | 38 | 0.0 | 0.0 | 0.00 | 0.00 | 0.00 | 998.3 | ||
| 20260507065808 | 38 | 0.0 | 0.0 | 0.00 | 0.00 | 0.00 | 998.2 | ||
| 20260507064805 | 39 | 0.0 | 0.0 | 0.00 | 0.00 | 0.00 | 998.2 | ||
| 20260507063803 | 38 | 0.0 | 0.0 | 0.00 | 0.00 | 0.00 | 998.2 | ||
| 20260507062801 | 37 | 0.0 | 0.0 | 0.00 | 0.00 | 0.00 | 998.1 | ||
| 20260507061759 | 37 | 0.0 | 0.0 | 0.00 | 0.00 | 0.00 | 998.1 | ||
| 20260507060757 | 37 | 0.0 | 0.0 | 0.00 | 0.00 | 0.00 | 998.0 | ||
| 20260507055755 | 37 | 0.0 | 0.0 | 0.00 | 0.00 | 0.00 | 997.9 | ||
| 20260507054752 | 37 | 0.0 | 0.0 | 0.00 | 0.00 | 0.00 | 997.9 | ||
| 20260507053750 | 37 | 0.0 | 0.0 | 0.00 | 0.00 | 0.00 | 997.8 | ||
| 20260507052748 | 37 | 0.0 | 0.0 | 0.00 | 0.00 | 0.00 | 997.8 | ||
| 20260507051746 | 37 | 0.0 | 0.0 | 0.00 | 0.00 | 0.00 | 997.7 | ||
| 20260507050743 | 37 | 0.0 | 0.0 | 0.00 | 0.00 | 0.00 | 997.6 | ||
| 20260507045741 | 37 | 0.0 | 0.0 | 0.00 | 0.00 | 0.00 | 997.6 | ||
| 20260507044739 | 37 | 0.0 | 0.0 | 0.00 | 0.00 | 0.00 | 997.6 | ||
| 20260507043737 | 36 | 0.0 | 0.0 | 0.00 | 0.00 | 0.00 | 997.6 | ||
| 20260507042735 | 36 | 0.0 | 0.0 | 0.00 | 0.00 | 0.00 | 997.5 | ||
| 20260507041732 | 35 | 0.0 | 0.0 | 0.00 | 0.00 | 0.00 | 997.5 | ||
| 20260507040730 | 35 | 0.0 | 0.0 | 0.00 | 0.00 | 0.00 | 997.5 | ||
| 20260507035728 | 34 | 0.0 | 0.0 | 0.00 | 0.00 | 0.00 | 997.4 | ||
| 20260507034726 | 34 | 0.0 | 0.0 | 0.00 | 0.00 | 0.00 | 997.4 | ||
| 20260507033724 | 34 | 0.0 | 0.0 | 0.00 | 0.00 | 0.00 | 997.3 | ||
| 20260507032721 | 34 | 0.0 | 0.0 | 0.00 | 0.00 | 0.00 | 997.3 | ||
| 20260507031719 | 34 | 0.0 | 0.0 | 0.00 | 0.00 | 0.00 | 997.3 | ||
| 20260507030717 | 34 | 0.0 | 0.0 | 0.00 | 0.00 | 0.00 | 997.1 | ||
| 20260507025715 | 33 | 0.0 | 0.0 | 0.00 | 0.00 | 0.00 | 997.1 | ||
| 20260507024713 | 34 | 0.0 | 0.0 | 0.00 | 0.00 | 0.00 | 997.0 | ||
| 20260507023710 | 34 | 0.0 | 0.0 | 0.00 | 0.00 | 0.00 | 996.9 | ||
| 20260507022708 | 33 | 0.0 | 0.0 | 0.00 | 0.00 | 0.00 | 997.0 | ||
| 20260507021706 | 32 | 0.0 | 0.0 | 0.00 | 0.00 | 0.00 | 997.0 | ||
| 20260507020704 | 33 | 0.0 | 0.0 | 0.00 | 0.00 | 0.00 | 996.8 | ||
| 20260507015701 | 33 | 0.0 | 0.0 | 0.00 | 0.00 | 0.00 | 996.8 | ||
| 20260507014659 | 33 | 0.0 | 0.0 | 0.00 | 0.00 | 0.00 | 996.8 | ||
| 20260507013657 | 33 | 0.0 | 0.0 | 0.00 | 0.00 | 0.00 | 996.7 | ||
| 20260507012655 | 32 | 0.0 | 0.0 | 0.00 | 0.00 | 0.00 | 996.7 | ||
| 20260507011652 | 32 | 0.0 | 0.0 | 0.00 | 0.00 | 0.00 | 996.7 | ||
| 20260507010650 | 33 | 0.0 | 0.0 | 0.00 | 0.00 | 0.00 | 996.7 | ||
| 20260507005648 | 33 | 0.0 | 0.0 | 0.00 | 0.00 | 0.00 | 996.6 | ||
| 20260507004646 | 33 | 0.0 | 0.0 | 0.00 | 0.00 | 0.00 | 996.6 | ||
| 20260507003643 | 32 | 0.0 | 0.0 | 0.00 | 0.00 | 0.00 | 996.7 | ||
| 20260507002640 | 32 | 0.0 | 0.0 | 0.00 | 0.00 | 0.00 | 996.5 | ||
| 20260507001638 | 33 | 0.0 | 0.0 | 0.00 | 0.00 | 0.00 | 996.4 | ||
| 20260507000636 | 33 | 0.0 | 0.0 | 0.00 | 0.00 | 0.00 | 996.4 | ||
| 20260506235634 | 33 | 0.0 | 0.0 | 0.00 | 0.00 | 0.00 | 996.3 | ||
| 20260506234632 | 34 | 0.0 | 0.0 | 0.00 | 0.00 | 0.00 | 996.2 | ||
| 20260506233630 | 34 | 0.0 | 0.0 | 0.00 | 0.00 | 0.00 | 996.1 | ||
| 20260506232627 | 34 | 0.0 | 0.0 | 0.00 | 0.00 | 0.00 | 996.1 | ||
| 20260506231625 | 34 | 0.0 | 0.0 | 0.00 | 0.00 | 0.00 | 996.1 | ||
| 20260506230623 | 34 | 0.0 | 0.0 | 0.00 | 0.00 | 0.00 | 996.0 | ||
| 20260506225621 | 35 | 0.0 | 0.0 | 0.00 | 0.00 | 0.00 | 996.0 | ||
| 20260506224619 | 35 | 0.0 | 0.0 | 0.00 | 0.00 | 0.00 | 995.9 | ||
| 20260506223616 | 34 | 0.0 | 0.0 | 0.00 | 0.00 | 0.00 | 995.9 | ||
| 20260506222614 | 34 | 0.0 | 0.0 | 0.00 | 0.00 | 0.00 | 995.8 | ||
| 20260506221612 | 35 | 0.0 | 0.0 | 0.00 | 0.00 | 0.00 | 995.7 | ||
| 20260506215602 | 36 | 0.0 | 0.0 | 0.00 | 0.00 | 0.00 | 995.7 | ||
| 20260506214600 | 35 | 0.0 | 0.0 | 0.00 | 0.00 | 0.00 | 995.6 | ||
| 20260506213557 | 35 | 0.0 | 0.0 | 0.00 | 0.00 | 0.00 | 995.6 | ||
| 20260506212555 | 35 | 0.0 | 0.0 | 0.00 | 0.00 | 0.00 | 995.5 | ||
| 20260506211553 | 35 | 0.0 | 0.0 | 0.00 | 0.00 | 0.00 | 995.4 | ||
| 20260506210551 | 35 | 0.0 | 0.0 | 0.00 | 0.00 | 0.00 | 995.3 | ||
| 20260506205549 | 36 | 0.0 | 0.0 | 0.00 | 0.00 | 0.00 | 995.2 | ||
| 20260506204546 | 36 | 0.0 | 0.0 | 0.00 | 0.00 | 0.00 | 995.2 | ||
| 20260506203544 | 36 | 0.0 | 0.0 | 0.00 | 0.00 | 0.00 | 995.1 | ||
| 20260506202542 | 37 | 0.0 | 0.0 | 0.00 | 0.00 | 0.00 | 995.0 | ||
| 20260506201539 | 36 | 0.0 | 0.0 | 0.00 | 0.00 | 0.00 | 995.0 | ||
| 20260506200537 | 36 | 0.0 | 0.0 | 0.00 | 0.00 | 0.00 | 994.9 | ||
| 20260506195535 | 36 | 0.0 | 0.0 | 0.00 | 0.00 | 0.00 | 994.9 | ||
| 20260506194533 | 36 | 0.0 | 0.0 | 0.00 | 0.00 | 0.00 | 994.8 | ||
| 20260506193530 | 37 | 0.0 | 0.0 | 0.00 | 0.00 | 0.00 | 994.7 | ||
| 20260506192528 | 37 | 0.0 | 0.0 | 0.00 | 0.00 | 0.00 | 994.6 | ||
| 20260506191526 | 39 | 0.0 | 0.0 | 0.00 | 0.00 | 0.00 | 994.6 | ||
| 20260506190524 | 39 | 0.0 | 0.0 | 0.00 | 0.00 | 0.00 | 994.5 | ||
| 20260506185522 | 40 | 0.0 | 0.0 | 0.00 | 0.00 | 0.00 | 994.4 | ||
| 20260506184519 | 41 | 0.0 | 0.0 | 0.00 | 0.00 | 0.00 | 994.3 | ||
| 20260506183517 | 41 | 0.0 | 0.0 | 0.00 | 0.00 | 0.00 | 994.2 | ||
| 20260506182515 | 40 | 0.0 | 0.0 | 0.00 | 0.00 | 0.00 | 994.3 | ||
| 20260506181513 | 41 | 0.0 | 0.0 | 0.00 | 0.00 | 0.00 | 994.1 | ||
| 20260506180510 | 42 | 0.0 | 0.0 | 0.00 | 0.00 | 0.00 | 994.1 | ||
| 20260506175508 | 48 | 0.0 | 0.0 | 0.00 | 0.00 | 0.00 | 994.0 | ||
| 20260506174506 | 45 | 0.0 | 0.0 | 0.00 | 0.00 | 0.00 | 993.9 | ||
| 20260506173504 | 46 | 0.0 | 0.0 | 0.00 | 0.00 | 0.00 | 993.9 | ||
| 20260506172501 | 48 | 0.0 | 0.0 | 0.00 | 0.00 | 0.00 | 993.9 | ||
| 20260506171459 | 48 | 0.0 | 0.0 | 0.00 | 0.00 | 0.00 | 993.8 | ||
| 20260506170457 | 51 | 0.0 | 0.0 | 0.00 | 0.00 | 0.00 | 993.7 | ||
| 20260506165455 | 51 | 0.0 | 0.0 | 0.00 | 0.00 | 0.00 | 993.7 | ||
| 20260506164452 | 53 | 0.0 | 0.0 | 0.00 | 0.00 | 0.00 | 993.6 | ||
| 20260506163450 | 52 | 0.0 | 0.0 | 0.00 | 0.00 | 0.00 | 993.6 | ||
| 20260506162448 | 49 | 0.0 | 0.0 | 0.00 | 0.00 | 0.00 | 993.6 | ||
| 20260506161446 | 55 | 0.0 | 0.0 | 0.00 | 0.00 | 0.00 | 993.3 | ||
| 20260506160444 | 57 | 0.0 | 0.0 | 0.00 | 0.00 | 0.00 | 993.3 | ||
| 20260506155441 | 49 | 0.0 | 0.0 | 0.00 | 0.00 | 0.00 | 993.2 | ||
| 20260506154439 | 52 | 0.0 | 0.0 | 0.00 | 0.00 | 0.00 | 993.1 | ||
| 20260506153437 | 53 | 0.0 | 0.0 | 0.00 | 0.00 | 0.00 | 993.1 | ||
| 20260506152435 | 52 | 0.0 | 0.0 | 0.00 | 0.00 | 0.00 | 993.0 | ||
| 20260506151432 | 49 | 0.0 | 0.0 | 0.00 | 0.00 | 0.00 | 992.8 | ||
| 20260506150430 | 54 | 0.0 | 0.0 | 0.00 | 0.00 | 0.00 | 992.8 | ||
| 20260506145428 | 52 | 0.0 | 0.0 | 0.00 | 0.00 | 0.00 | 992.8 | ||
| 20260506144426 | 45 | 0.0 | 0.0 | 0.00 | 0.00 | 0.00 | 992.7 | ||
| 20260506143423 | 52 | 0.0 | 0.0 | 0.00 | 0.00 | 0.00 | 992.6 | ||
| 20260506142421 | 54 | 0.0 | 0.0 | 0.00 | 0.00 | 0.00 | 992.5 | ||
| 20260506141419 | 50 | 0.0 | 0.0 | 0.00 | 0.00 | 0.00 | 992.5 | ||
| 20260506140417 | 54 | 0.0 | 0.0 | 0.00 | 0.00 | 0.00 | 992.4 | ||
| 20260506135415 | 56 | 0.0 | 0.0 | 0.00 | 0.00 | 0.00 | 992.2 | ||
| 20260506134413 | 50 | 0.0 | 0.0 | 0.00 | 0.00 | 0.00 | 992.3 | ||
| 20260506133411 | 51 | 0.0 | 0.0 | 0.00 | 0.00 | 0.00 | 992.3 | ||
| 20260506132409 | 42 | 0.0 | 0.0 | 0.00 | 0.00 | 0.00 | 992.2 | ||
| 20260506131406 | 42 | 0.0 | 0.0 | 0.00 | 0.00 | 0.00 | 992.2 | ||
| 20260506130404 | 42 | 0.0 | 0.0 | 0.00 | 0.00 | 0.00 | 992.1 | ||
| 20260506125402 | 42 | 0.0 | 0.0 | 0.00 | 0.00 | 0.00 | 992.1 | ||
| 20260506124400 | 40 | 0.0 | 0.0 | 0.00 | 0.00 | 0.00 | 992.1 | ||
| 20260506123357 | 37 | 0.0 | 0.0 | 0.00 | 0.00 | 0.00 | 991.9 | ||
| 20260506122355 | 37 | 0.0 | 0.0 | 0.00 | 0.00 | 0.00 | 991.7 | ||
| 20260506121353 | 41 | 0.0 | 0.0 | 0.00 | 0.00 | 0.00 | 991.7 | ||
| 20260506120351 | 41 | 0.0 | 0.0 | 0.00 | 0.00 | 0.00 | 991.6 | ||
| 20260506115348 | 37 | 0.0 | 0.0 | 0.00 | 0.00 | 0.00 | 991.5 |